{"data":{"norad_id":53663,"intl_designator":"2022-105R","name":"STARLINK-4457","alt_names":[],"object_type":"PAYLOAD","status":"ACTIVE","operator":null,"country":"US","launch_date":"2022-08-31","launch_site_code":"AFWTR","launch_vehicle":null,"mission":null,"orbit_class":"UNKNOWN","rcs_meters":null,"size_class":null,"mass_kg":null,"dimensions":null,"purposes":["comms"],"wikipedia_slug":null,"has_3d_model":false,"image_url":null,"decayed_at":null,"tle_current":{"epoch":"2026-05-25T02:54:56.176128Z","epoch_age_seconds":57769,"freshness":"FRESH","line1":"1 53663U 22105R   26145.12148352 -.00000886  00000+0 -57341-4 0  9994","line2":"2 53663  97.4497  26.2235 0002393  69.4329 290.7155 15.05651037204801","mean_motion":15.05651037,"eccentricity":0.0002393,"inclination_deg":97.4497,"raan_deg":26.2235,"arg_perigee_deg":69.4329,"mean_anomaly_deg":290.7155,"bstar":-5.7341e-5,"rev_number":20480,"period_min":95.639691044825,"perigee_km":547.85018770417,"apogee_km":551.16575858832,"semimajor_km":6927.6449731462,"source":"CELESTRAK","updated_at":"2026-05-25T13:38:17.487262Z"}}}